Date String (YYYY-MM-DD hh:mm:ss) UTC,Instrument flags,Ambient pressure (hPa),Sample flow (lpm),Bypass flow (lpm),Sample temperature (°C),Ambient temperature (°C),ASC tube jacket temperature (°C),LED temperature (°C),Box temperature (°C),Sample RH (%),Span deviation,Mass concentration (μg/m³),Mass concentration (μg/m³),Mass concentration (μg/m³)
DateTimeUTC,F1_M11,P_M11,Q1_M11,Q2_M11,T1_M11,T2_M11,T3_M11,T4_M11,T5_M11,U1_M11,ZSPAN_M11,X0_M11,X2_M11,X1_M11
2021-09-23 14:00:00,,0829.2,4.99,0.00,30.5,29.7,00.0,39.7,32.3,08.5,0000.0,0007.49,0002.12,0001.35
2021-09-23 14:01:00,,0828.8,5.01,0.00,30.6,29.7,00.0,39.7,32.3,09.1,0000.0,0007.51,0002.14,0001.36
2021-09-23 14:02:00,,0828.8,5.00,0.00,30.6,29.7,00.0,39.7,32.3,08.7,0000.0,0007.21,0002.10,0001.37
2021-09-23 14:03:00,,0828.9,4.99,0.00,30.6,29.7,00.0,39.7,32.3,08.7,0000.0,0007.77,0002.10,0001.38
2021-09-23 14:04:00,,0828.9,5.00,0.00,30.6,29.7,00.0,39.7,32.3,09.6,0000.0,0009.31,0002.19,0001.38
2021-09-23 14:05:00,,0828.9,5.01,0.00,30.6,29.7,00.0,39.7,32.3,08.7,0000.0,0008.90,0002.21,0001.40
2021-09-23 14:06:00,,0828.9,5.00,0.00,30.6,29.7,00.0,39.7,32.3,08.6,0000.0,0008.07,0002.18,0001.41
2021-09-23 14:07:00,,0828.9,4.99,0.00,30.6,29.7,00.0,39.7,32.3,08.9,0000.0,0008.04,0002.18,0001.41
2021-09-23 14:08:00,,0828.9,5.01,0.00,30.6,29.7,00.0,39.7,32.3,08.8,0000.0,0007.98,0002.18,0001.42
2021-09-23 14:09:00,,0828.9,5.01,0.00,30.6,29.7,00.0,39.7,32.3,08.7,0000.0,0008.12,0002.25,0001.42
2021-09-23 14:10:00,,0828.8,4.98,0.00,30.6,29.7,00.0,39.7,32.3,08.7,0000.0,0008.00,0002.22,0001.43
2021-09-23 14:11:00,,0828.9,5.01,0.00,30.6,29.7,00.0,39.7,32.4,08.7,0000.0,0008.08,0002.19,0001.45
2021-09-23 14:12:00,,0829.0,5.00,0.00,30.6,29.7,00.0,39.7,32.4,08.7,0000.0,0008.21,0002.17,0001.46
2021-09-23 14:13:00,,0829.0,4.99,0.00,30.6,29.7,00.0,39.8,32.4,08.7,0000.0,0008.51,0002.15,0001.47
2021-09-23 14:14:00,,0829.0,5.00,0.00,30.7,29.8,00.0,39.8,32.4,08.7,0000.0,0008.20,0002.15,0001.47
2021-09-23 14:15:00,,0829.0,5.00,0.00,30.7,29.8,00.0,39.8,32.3,08.7,0000.0,0005.92,0002.09,0001.47
2021-09-23 14:16:00,,0829.0,5.00,0.00,30.7,29.8,00.0,39.8,32.4,08.6,0000.0,0005.41,0002.10,0001.46
2021-09-23 14:17:00,,0829.0,5.02,0.00,30.7,29.8,00.0,39.8,32.4,08.6,0000.0,0006.03,0002.10,0001.45
2021-09-23 14:18:00,,0829.0,4.98,0.00,30.7,29.8,00.0,39.8,32.4,08.6,0000.0,0006.56,0002.15,0001.46
2021-09-23 14:19:00,,0829.0,4.99,0.00,30.7,29.8,00.0,39.8,32.4,08.7,0000.0,0006.71,0002.13,0001.46
2021-09-23 14:20:00,,0829.0,5.01,0.00,30.7,29.8,00.0,39.8,32.4,08.7,0000.0,0006.68,0002.14,0001.45
2021-09-23 14:21:00,,0829.0,5.00,0.00,30.7,29.8,00.0,39.8,32.4,08.7,0000.0,0006.91,0002.22,0001.45
2021-09-23 14:22:00,,0829.0,4.99,0.00,30.7,29.8,00.0,39.8,32.4,08.8,0000.0,0007.08,0002.26,0001.45
2021-09-23 14:23:00,,0829.0,5.00,0.00,30.7,29.8,00.0,39.8,32.4,08.8,0000.0,0007.88,0002.30,0001.46
2021-09-23 14:24:00,,0829.0,5.00,0.00,30.7,29.8,00.0,39.8,32.4,08.9,0000.0,0007.87,0002.34,0001.45
2021-09-23 14:25:00,,0829.0,5.00,0.00,30.7,29.9,00.0,39.8,32.4,09.0,0000.0,0008.10,0002.36,0001.44
2021-09-23 14:26:00,,0829.0,5.00,0.00,30.7,29.9,00.0,39.8,32.4,09.0,0000.0,0008.68,0002.36,0001.45
2021-09-23 14:27:00,,0829.0,5.00,0.00,30.7,29.9,00.0,39.8,32.4,09.1,0000.0,0009.49,0002.40,0001.45
2021-09-23 14:28:00,,0828.9,4.99,0.00,30.7,29.9,00.0,39.9,32.4,08.9,0000.0,0009.20,0002.47,0001.47
2021-09-23 14:29:00,,0829.0,5.00,0.00,30.7,29.9,00.0,39.9,32.4,08.8,0000.0,0009.08,0002.50,0001.47
2021-09-23 14:30:00,,0829.0,5.01,0.00,30.7,29.0,00.0,39.9,32.3,09.1,0000.0,0009.02,0002.53,0001.46
2021-09-23 14:31:00,,0829.0,5.00,0.00,30.6,26.9,00.0,39.8,31.7,09.1,0000.0,0009.22,0002.60,0001.47
2021-09-23 14:32:00,,0829.0,5.01,0.00,30.4,26.3,00.0,39.7,31.5,09.5,0000.0,0009.72,0002.61,0001.46
2021-09-23 14:33:00,,0829.0,5.00,0.00,30.3,26.7,00.0,39.7,31.6,09.6,0000.0,0010.02,0002.64,0001.45
2021-09-23 14:34:00,,0829.0,4.99,0.00,30.2,27.1,00.0,39.6,31.5,09.7,0000.0,0010.18,0002.68,0001.43
2021-09-23 14:35:00,,0829.0,4.99,0.00,30.1,27.5,00.0,39.5,31.5,09.8,0000.0,0009.83,0002.69,0001.43
2021-09-23 14:36:00,,0829.0,5.01,0.00,30.1,27.8,00.0,39.5,31.6,09.7,0000.0,0009.59,0002.70,0001.43
2021-09-23 14:37:00,,0829.0,5.01,0.00,30.1,28.1,00.0,39.5,31.7,09.5,0000.0,0009.07,0002.76,0001.42
2021-09-23 14:38:00,,0829.0,4.99,0.00,30.1,28.3,00.0,39.5,31.7,09.4,0000.0,0008.42,0002.76,0001.42
2021-09-23 14:39:00,,0829.0,5.00,0.00,30.1,28.5,00.0,39.4,31.7,09.5,0000.0,0008.51,0002.79,0001.40
2021-09-23 14:40:00,,0829.0,5.00,0.00,30.1,28.6,00.0,39.4,31.8,09.6,0000.0,0008.58,0002.79,0001.40
2021-09-23 14:41:00,,0829.0,4.99,0.00,30.2,28.7,00.0,39.4,31.7,09.9,0000.0,0008.80,0002.88,0001.40
2021-09-23 14:42:00,,0829.0,5.01,0.00,30.2,28.8,00.0,39.4,31.8,10.1,0000.0,0010.66,0003.28,0001.44
2021-09-23 14:43:00,,0829.0,4.99,0.00,30.2,28.9,00.0,39.4,31.9,10.1,0000.0,0013.78,0003.68,0001.50
2021-09-23 14:44:00,,0829.1,5.00,0.00,30.2,29.0,00.0,39.4,31.9,10.1,0000.0,0015.61,0003.90,0001.54
2021-09-23 14:45:00,,0829.1,5.02,0.00,30.2,29.1,00.0,39.4,31.9,09.7,0000.0,0015.79,0004.00,0001.58
2021-09-23 14:46:00,,0829.1,4.99,0.00,30.2,29.1,00.0,39.4,32.0,09.5,0000.0,0015.97,0004.04,0001.59
2021-09-23 14:47:00,,0829.0,5.01,0.00,30.3,29.2,00.0,39.4,32.0,09.8,0000.0,0016.56,0004.17,0001.61
2021-09-23 14:48:00,,0829.1,5.01,0.00,30.3,29.2,00.0,39.4,32.0,10.0,0000.0,0017.09,0004.26,0001.62
2021-09-23 14:49:00,,0829.0,4.98,0.00,30.3,29.3,00.0,39.4,32.0,09.9,0000.0,0016.99,0004.27,0001.63
2021-09-23 14:50:00,,0829.0,5.02,0.00,30.3,29.3,00.0,39.4,32.0,09.8,0000.0,0017.06,0004.30,0001.65
2021-09-23 14:51:00,,0829.1,5.00,0.00,30.3,29.4,00.0,39.4,32.1,09.7,0000.0,0017.09,0004.33,0001.66
2021-09-23 14:52:00,,0829.1,4.99,0.00,30.4,29.4,00.0,39.4,32.1,09.6,0000.0,0016.96,0004.31,0001.66
2021-09-23 14:53:00,,0829.0,5.01,0.00,30.4,29.4,00.0,39.4,32.1,09.8,0000.0,0015.99,0004.01,0001.61
2021-09-23 14:54:00,,0829.1,5.00,0.00,30.4,29.4,00.0,39.4,32.1,09.3,0000.0,0012.76,0003.63,0001.56
2021-09-23 14:55:00,,0829.1,5.00,0.00,30.4,29.5,00.0,39.5,32.1,09.4,0000.0,0011.04,0003.45,0001.52
2021-09-23 14:56:00,,0829.1,5.00,0.00,30.4,29.5,00.0,39.5,32.2,09.1,0000.0,0010.64,0003.33,0001.47
2021-09-23 14:57:00,,0829.1,5.00,0.00,30.5,29.6,00.0,39.5,32.2,08.9,0000.0,0010.38,0003.27,0001.46
2021-09-23 14:58:00,,0829.1,5.01,0.00,30.5,29.6,00.0,39.5,32.2,09.4,0000.0,0009.82,0003.13,0001.44
2021-09-23 14:59:00,,0829.1,5.01,0.00,30.5,29.6,00.0,39.5,32.2,09.2,0000.0,0009.14,0002.96,0001.41
